#timestamp,LO_Frequency,Hit,StdDev 
1514563215.5,286047007.0,N
1514563235.4,286047006.5,N
1514563255.2,286047006.3,N
1514563275.0,286047006.4,N
1514563275.9,286047006.4,N
1514563295.8,286047006.3,N
1514563315.6,286047006.7,N
1514563335.5,286047007.3,N
1514563355.3,286047006.8,N
1514563375.1,286047006.1,N
1514563395.9,286047009.0,N
1514563415.7,286047008.0,N
1514563435.5,286047008.4,N
1514563455.4,286047012.4,N
1514563475.2,286047013.4,N
1514563495.1,286047013.4,N
1514563496.0,286047013.4,N
1514563515.8,286047013.7,N
1514563535.6,286047013.6,N
1514563555.5,286047013.6,N
1514563575.3,286047011.8,Y
1514563595.2,286047004.1,P
1514563615.9,286047005.3,P
1514563635.7,286047004.8,P
1514563655.6,286047004.6,Y
1514563675.4,286046999.8,P
1514563695.2,286047002.0,N
1514563715.1,286047001.6,N
1514563716.0,286047001.6,N
1514563735.8,286047001.9,N
1514563755.7,286047001.4,N
1514563775.5,286047002.9,N
1514563795.3,286047005.7,Y
1514563815.2,286047004.0,P
1514563835.0,286047003.8,P
1514563835.9,286047003.8,P
1514563855.8,286047005.9,Y
1514563875.6,286047001.4,P
1514563895.4,286047001.3,N
1514563915.3,286047003.5,P
1514563935.1,286047003.8,Y
1514563955.9,286046999.7,P
1514563975.7,286047002.4,N
1514563995.5,286047001.9,N
1514564015.4,286047004.4,Y
1514564035.2,286047001.0,P
1514564055.0,286047000.5,N
1514564056.0,286047000.5,N
1514564075.8,286047000.0,N
1514564095.6,286046998.6,N
1514564115.5,286046999.3,N
1514564135.3,286046996.5,Y
1514564155.1,286046997.1,P
1514564175.9,286046997.5,N
1514564195.7,286046997.8,N
1514564215.6,286046994.9,Y
1514564235.4,286046998.2,P
1514564255.2,286047000.9,P
1514564275.1,286047001.0,N
1514564276.0,286047001.0,N
1514564295.8,286046999.0,N
1514564315.7,286046997.2,N
1514564335.5,286046996.6,N
1514564355.3,286046998.3,N
1514564375.2,286047000.1,N
1514564395.0,286047002.3,N
1514564395.9,286047002.3,N
1514564415.7,286047005.5,N
1514564435.6,286047005.3,N
1514564455.4,286047002.9,N
1514564475.3,286047002.9,N
1514564495.1,286047006.7,N
1514564496.0,286047006.7,N
1514564515.8,286047007.5,N
1514564535.7,286047007.6,N
1514564555.5,286047006.5,N
1514564575.4,286047006.5,N
1514564595.2,286047008.1,N
1514564615.0,286047010.7,N
1514564615.9,286047010.7,N
1514564635.8,286047011.8,N
1514564655.6,286047013.3,Y
1514564675.4,286047009.9,P
1514564695.3,286047009.9,P
1514564715.1,286047009.8,P
1514564735.9,286047010.3,Y
1514564755.7,286047002.4,P
1514564775.5,286047001.7,N
1514564795.4,286047001.3,N
1514564815.2,286047003.2,N
1514564835.1,286047003.4,N
1514564836.0,286047003.4,N
1514564855.8,286047005.3,N
1514564875.6,286047005.1,N
1514564895.5,286047004.5,N
1514564915.3,286047009.0,Y
1514564935.2,286047005.5,P
1514564955.9,286047005.1,P
1514564975.7,286047006.3,P
1514564995.6,286047007.3,Y
1514565015.4,286047002.5,P
1514565035.2,286047003.1,N
1514565055.1,286047003.3,N
1514565056.0,286047003.3,Y
1514565075.8,286047002.0,P
1514565095.7,286047001.3,N
1514565115.5,286047001.5,N
1514565135.3,286047001.4,N
1514565155.2,286047001.6,N
1514565175.0,286047002.3,N
1514565175.9,286047002.3,Y
1514565195.8,286047000.4,P
1514565215.6,286046996.5,P
1514565235.4,286046996.6,N
1514565255.3,286046998.9,N
1514565275.1,286047002.8,N
1514565295.9,286047000.2,N
1514565315.7,286046999.9,N
1514565335.5,286047000.2,N
1514565355.4,286047002.3,N
1514565375.2,286047001.3,N
1514565395.0,286047002.2,N
1514565395.9,286047002.2,N
1514565415.8,286047001.7,N
1514565435.6,286047003.9,N
1514565455.5,286047003.9,N
1514565475.3,286047003.6,N
1514565495.1,286047003.5,N
1514565515.9,286047004.4,N
1514565535.7,286047004.1,N
1514565555.6,286047003.1,N
1514565575.4,286047003.6,N
1514565595.2,286047004.8,N
1514565615.1,286047007.2,Y
1514565616.0,286047007.2,P
1514565635.8,286047003.6,N
1514565655.6,286047004.4,N
1514565675.5,286047001.3,N
1514565695.3,286047003.5,N
1514565715.2,286047002.3,N
1514565735.9,286047002.8,N
1514565755.7,286047001.6,N
1514565775.6,286047004.4,N
1514565795.4,286047003.7,N
1514565815.3,286047003.5,N
1514565835.1,286047003.5,N
1514565836.0,286047003.5,N
1514565855.8,286047005.4,Y
1514565875.7,286047000.1,P
1514565895.5,286047002.3,N
1514565915.3,286047000.0,N
1514565935.2,286046999.7,N
1514565955.0,286047002.8,N
1514565955.9,286047002.8,N
1514565975.8,286047000.1,N
1514565995.6,286046999.7,N
1514566015.4,286046999.8,N
1514566035.3,286046998.2,N
1514566055.1,286046998.8,N
1514566075.9,286046999.7,N
1514566095.7,286046999.8,N
1514566115.5,286046999.8,N
1514566135.4,286047002.2,N
1514566155.2,286047004.0,N
1514566175.0,286047001.8,N
1514566175.9,286047001.8,N
1514566195.8,286047004.2,N
1514566215.6,286047003.6,N
1514566235.5,286047004.2,N
1514566255.3,286047004.0,N
1514566275.1,286047001.6,N
1514566295.9,286047003.8,N
1514566315.7,286047006.4,Y
1514566335.6,286047009.2,P
1514566355.4,286047006.7,N
1514566375.2,286047006.8,N
1514566395.1,286047009.2,Y
1514566396.0,286047009.2,P
1514566415.8,286047001.7,N
1514566435.6,286047001.6,N
1514566455.5,286047004.2,N
1514566475.3,286047001.9,N
1514566495.2,286047005.7,N
1514566515.9,286047005.7,N
1514566535.7,286047007.5,N
1514566555.6,286047008.3,Y
1514566575.4,286047003.4,P
1514566595.3,286047004.9,P
1514566615.1,286047004.7,P
1514566616.0,286047004.7,Y
1514566635.8,286047004.0,P
1514566655.7,286047003.2,P
1514566675.5,286047003.3,P
1514566695.4,286047003.0,Y
1514566715.2,286047003.4,P
1514566735.0,286047005.8,P
1514566735.9,286047005.8,P
1514566755.8,286047006.3,Y
1514566775.6,286047001.3,P
1514566795.4,286047005.7,P
